TimeCDT,TemperatureF,Dew PointF,Humidity,Sea Level PressureIn,VisibilityMPH,Wind Direction,Wind SpeedMPH,Gust SpeedMPH,PrecipitationIn,Events,Conditions,WindDirDegrees,DateUTC
12:52 AM,33.1,30.9,92,30.12,5.0,NNE,16.1,-,N/A,,Overcast,20,2013-05-04 05:52:00
1:52 AM,33.1,30.9,92,30.09,10.0,North,18.4,23.0,0.00,,Overcast,10,2013-05-04 06:52:00
2:19 AM,33.8,30.2,87,30.05,10.0,NNE,20.7,26.5,N/A,,Overcast,20,2013-05-04 07:19:00
2:52 AM,33.1,30.9,92,30.08,10.0,NNE,18.4,26.5,N/A,,Overcast,20,2013-05-04 07:52:00
3:52 AM,33.1,30.9,92,30.09,8.0,NNE,16.1,24.2,N/A,,Overcast,20,2013-05-04 08:52:00
4:52 AM,33.1,30.9,92,30.07,4.0,North,18.4,26.5,N/A,,Overcast,10,2013-05-04 09:52:00
5:52 AM,33.1,30.9,92,30.07,5.0,North,21.9,28.8,0.00,,Overcast,360,2013-05-04 10:52:00
6:32 AM,33.8,30.2,87,30.03,2.0,North,21.9,29.9,N/A,,Overcast,10,2013-05-04 11:32:00
6:52 AM,33.1,30.9,92,30.07,3.0,North,20.7,26.5,N/A,,Overcast,10,2013-05-04 11:52:00
7:52 AM,33.1,32.0,96,30.09,10.0,North,19.6,-,N/A,,Overcast,10,2013-05-04 12:52:00
8:31 AM,33.8,32.0,93,30.06,1.8,North,16.1,-,0.00,Snow,Light Snow,10,2013-05-04 13:31:00
8:52 AM,34.0,32.0,92,30.11,1.2,North,18.4,-,0.01,Snow,Light Snow,10,2013-05-04 13:52:00
9:52 AM,35.1,33.1,92,30.11,1.2,North,18.4,24.2,0.02,Snow,Light Snow,10,2013-05-04 14:52:00
10:01 AM,35.6,33.8,93,30.07,1.0,North,17.3,-,0.00,Snow,Light Snow,10,2013-05-04 15:01:00
10:10 AM,35.6,33.8,93,30.07,1.8,North,20.7,-,0.01,Snow,Light Snow,10,2013-05-04 15:10:00
10:14 AM,35.6,33.8,93,30.07,3.0,North,17.3,-,0.01,Snow,Light Snow,10,2013-05-04 15:14:00
10:26 AM,35.6,33.8,93,30.07,2.0,North,18.4,24.2,0.01,Snow,Light Snow,10,2013-05-04 15:26:00
10:45 AM,35.6,33.8,93,30.07,3.0,North,20.7,25.3,0.01,,Overcast,10,2013-05-04 15:45:00
10:52 AM,36.0,34.0,93,30.12,3.0,North,17.3,-,0.01,,Overcast,10,2013-05-04 15:52:00
11:23 AM,35.6,33.8,93,30.09,2.0,North,19.6,24.2,0.00,,Overcast,10,2013-05-04 16:23:00
11:37 AM,35.6,33.8,93,30.09,1.2,North,17.3,-,0.01,Snow,Light Snow,10,2013-05-04 16:37:00
11:52 AM,37.0,35.1,93,30.14,1.5,NNE,13.8,-,0.02,Snow,Light Snow,20,2013-05-04 16:52:00
12:07 PM,37.4,35.6,93,30.09,2.0,North,17.3,-,0.00,Snow,Light Snow,10,2013-05-04 17:07:00
12:20 PM,37.4,35.6,93,30.09,1.5,NNE,13.8,-,0.01,Snow,Light Snow,20,2013-05-04 17:20:00
12:26 PM,37.4,35.6,93,30.10,3.0,North,15.0,-,0.01,Snow,Light Snow,10,2013-05-04 17:26:00
12:52 PM,37.9,36.0,93,30.14,6.0,NNE,18.4,-,0.01,,Overcast,20,2013-05-04 17:52:00
1:52 PM,39.0,37.0,93,30.14,9.0,North,16.1,-,N/A,,Overcast,10,2013-05-04 18:52:00
2:36 PM,39.2,37.4,93,30.10,10.0,NNE,16.1,-,N/A,,Overcast,20,2013-05-04 19:36:00
2:52 PM,39.9,37.9,93,30.13,10.0,North,16.1,-,N/A,,Overcast,10,2013-05-04 19:52:00
3:52 PM,39.9,37.9,93,30.13,9.0,North,13.8,-,N/A,,Overcast,360,2013-05-04 20:52:00
4:52 PM,41.0,39.0,93,30.14,10.0,North,17.3,-,N/A,,Overcast,10,2013-05-04 21:52:00
5:52 PM,41.0,39.0,93,30.14,7.0,North,15.0,-,N/A,,Overcast,350,2013-05-04 22:52:00
6:08 PM,41.0,39.2,93,30.11,5.0,North,16.1,-,N/A,,Overcast,360,2013-05-04 23:08:00
6:27 PM,39.2,39.2,100,30.10,1.8,North,16.1,-,N/A,,Overcast,360,2013-05-04 23:27:00
6:39 PM,39.2,39.2,100,30.10,2.5,North,17.3,-,N/A,,Overcast,360,2013-05-04 23:39:00
6:52 PM,39.9,39.0,97,30.15,4.0,North,16.1,-,N/A,,Overcast,10,2013-05-04 23:52:00
7:52 PM,41.0,39.0,93,30.16,3.0,North,12.7,-,N/A,,Overcast,360,2013-05-05 00:52:00
8:04 PM,39.2,39.2,100,30.13,2.5,North,12.7,-,N/A,,Overcast,360,2013-05-05 01:04:00
8:25 PM,39.2,39.2,100,30.13,3.0,North,13.8,-,N/A,,Overcast,10,2013-05-05 01:25:00
8:36 PM,39.2,39.2,100,30.13,2.5,North,12.7,-,N/A,,Overcast,360,2013-05-05 01:36:00
8:52 PM,39.9,39.0,97,30.17,1.8,North,13.8,-,N/A,,Overcast,350,2013-05-05 01:52:00
9:05 PM,39.2,39.2,100,30.14,1.0,North,11.5,-,N/A,,Overcast,360,2013-05-05 02:05:00
9:31 PM,39.2,39.2,100,30.14,0.8,North,11.5,-,N/A,,Overcast,350,2013-05-05 02:31:00
9:52 PM,39.9,39.0,97,30.18,0.5,North,12.7,-,N/A,Fog,Fog,360,2013-05-05 02:52:00
10:52 PM,39.9,39.0,97,30.18,0.5,North,13.8,-,N/A,Fog,Fog,360,2013-05-05 03:52:00
11:52 PM,39.9,39.0,97,30.18,0.5,North,12.7,-,N/A,Fog,Fog,350,2013-05-05 04:52:00